Regional Weather Roundup
Issued by NWS

Home | Current Version | Previous Version | Text Only | Print | Product List | Glossary On
Versions: 1 2 3 4 5 6 7 8 9 10 11 12 13 14 15 16 17 18 19 20 21 22 23 24 25 26 27 28 29 30 31 32 33 34 35 36 37 38 39 40 41 42 43 44 45 46 47 48 49 50
000
ASUS44 KFWD 050203
RWRTX
NORTH TEXAS HOURLY WEATHER ROUNDUP
NATIONAL WEATHER SERVICE FORT WORTH TX
900 PM CDT TUE AUG 04 2015

NOTE: "FAIR" INDICATES FEW OR NO CLOUDS BELOW 12,000 FEET WITH NO
SIGNIFICANT WEATHER AND/OR OBSTRUCTIONS TO VISIBILITY.

TXZ118-119-050300-
DALLAS/FORT WORTH METROPLEX

CITY           SKY/WX    TMP DP  RH WIND       PRES   REMARKS
DFW AIRPORT    PTCLDY    93  64  38 S7        29.88R HX  94
DALLAS LOVE    PTCLDY    93  65  39 SE15      29.88R HX  95
FTW MEACHAM    CLEAR     93  62  35 S8        29.88R HX  93
DAL-EXECUTIVE  PTCLDY    90  65  43 SE6       29.89R HX  92
FTW-ALLIANCE   PTCLDY    90  62  39 S7        29.88R HX  90
FTW-NAS-JRB    CLEAR     94  64  37 S7        29.89R HX  95
FTW-SPINKS     CLEAR     89  65  45 CALM      29.90R HX  91
ARLINGTON      CLEAR     92  65  40 SE6       29.89R HX  94
GRAND PRAIRIE  CLEAR     92  67  44 SE5       29.89R HX  95
MESQUITE       PTCLDY    90  62  39 SE6       29.89S HX  90
LANCASTER      CLEAR     90  63  40 SE5       29.90R HX  91
$$

TXZ091>094-102>105-117-120-121-131>134-050300-
NORTH CENTRAL TEXAS

CITY           SKY/WX    TMP DP  RH WIND       PRES   REMARKS
SHRMAN/DENISON PTCLDY    90  65  42 SE7       29.91R HX  92
GAINESVILLE    PTCLDY    85  65  49 SE5       29.91S
BOWIE          CLEAR     83  68  58 CALM      29.90R
DECATUR        CLEAR     89  60  38 SE5       29.90S
DENTON         CLEAR     89  66  46 SE8       29.87S HX  91
MCKINNEY       PTCLDY    89  66  46 SE8       29.89R HX  91
GREENVILLE     CLEAR     86  64  48 SE3       29.90S
ROCKWALL       CLEAR     89  65  44 SE5       29.89R HX  90
TERRELL        CLEAR     89  65  44 SE6       29.90R HX  91
WAXAHACHIE     CLEAR     89  67  49 SE3       29.91R HX  92
CLEBURNE       CLEAR     91  66  43 SE7       29.91R HX  94
GRANBURY       CLEAR     93  65  38 SE7       29.89R HX  95
$$

TXZ083>090-098>101-113>116-127>130-139>142-154-155-050300-
WESTERN NORTH TEXAS

CITY           SKY/WX    TMP DP  RH WIND       PRES   REMARKS
WICHITA FALLS  PTCLDY    84  70  62 SE8       29.88R
WF-KICKAPOO    CLEAR     87  69  54 SE6       29.89R HX  91
VERNON         CLEAR     88  64  44 SE5       29.89R
ABILENE        CLEAR     89  64  43 SE9       29.92R HX  90
ABILENE-DYESS  CLEAR     91  65  42 SE10      29.90R HX  93
BRECKENRIDGE   PTCLDY    90  62  39 SE6       29.89R HX  91
GRAHAM         CLEAR     87  67  52 SE5       29.87S HX  90
MINERAL WELLS  CLEAR     86  69  56 SE6       29.88R HX  90
STEPHENVILLE   CLEAR     88  64  44 SE5       29.94R
COMANCHE       CLEAR     88  64  45 SE7       29.90S
COLEMAN        CLEAR     88  63  42 SE5       29.91S
BRADY          CLEAR     91  61  35 SE6       29.93R HX  91
$$

TXZ143>147-156>162-174-175-050300-
CENTRAL TEXAS

CITY           SKY/WX    TMP DP  RH WIND       PRES   REMARKS
WACO           CLEAR     91  66  43 SE9       29.89R HX  93
WACO-TSTC      CLEAR     90  68  48 SE5       29.89R HX  93
HILLSBORO      CLEAR     91  64  40 SE8       29.90R HX  92
CORSICANA      CLEAR     91  69  48 SE6       29.91R HX  96
MEXIA          CLEAR     86  71  60 SE15      29.90R HX  91
HEARNE         CLEAR     88  72  59 SE6       29.92R HX  94
CAMERON        CLEAR     88  71  55 SE6       29.90R HX  94
TEMPLE         CLEAR     90  64  43 SE12      29.90R HX  91
KILLEEN        NOT AVBL
KILLEEN-SKYLRK CLEAR     91  66  43 SE10      29.90R HX  94
GATESVILLE     CLEAR     90  66  45 SE7       29.92R HX  92
HAMILTON       CLEAR     91  64  40 SE12      29.92S HX  91
$$

TXZ095>097-106>112-122>126-135>138-148>153-164>167-050300-
EAST TEXAS

CITY           SKY/WX    TMP DP  RH WIND       PRES   REMARKS
PARIS          CLEAR     86  64  48 S6        29.90S
SULPHUR SPRNGS CLEAR     91  63  39 S6        29.93R HX  91
MOUNT PLEASANT CLEAR     87  64  46 CALM      29.92R
GILMER         CLEAR     84  68  59 CALM      29.91R
MINEOLA        CLEAR     84  70  61 CALM      29.91S
TYLER          CLEAR     88  64  44 SE6       29.91R
LONGVIEW       CLEAR     87  69  54 S5        29.91R HX  91
MARSHALL       CLEAR     89  69  51 CALM      29.93S HX  93
ATHENS         CLEAR     82  70  65 CALM      29.90R
PALESTINE      PTCLDY    87  72  60 SE3       29.92R HX  94
JACKSONVILLE   PTCLDY    88  67  48 CALM      29.95R HX  90
HENDERSON      CLEAR     87  68  53 CALM      29.93R HX  90
CENTER         FAIR      85  71  61 N3        29.92R HX  90
NACOGDOCHES    CLEAR     82  72  69 SE3       29.92R
LUFKIN         PTCLDY    87  72  60 S8        29.92R HX  93
$$

SUPPLEMENTAL OBSERVATIONS (CENTRAL)

CITY           SKY/WX    TMP DP  RH WIND       PRES   REMARKS
$$

SUPPLEMENTAL OBSERVATIONS (WEST)

CITY           SKY/WX    TMP DP  RH WIND       PRES   REMARKS
$$

SUPPLEMENTAL OBSERVATIONS (EAST)

CITY           SKY/WX    TMP DP  RH WIND       PRES   REMARKS
$$

SUPPLEMENTAL OBSERVATIONS ARE A COLLECTION OF AUTOMATED INSTRUMENTS
THAT ARE MAINTAINED BY A VARIETY OF FEDERAL AND STATE AGENCIES.
CERTAIN ELEMENTS...SUCH AS HUMIDITY VALUES AND SUSTAINED WIND
SPEEDS...MAY BE APPROXIMATED.




USA.gov is the U.S. government's official web portal to all federal, state and local government web resources and services.